Simultaneous Nadir Overpasses (SNOs) Predictions

Prediction of SNOs between GOES-17 and METOP-C Satellite Orbit:

Table of predicted SNOs for the next 14.0 days since TLE Epoch: 11/16/2024
Index Date Time (GOES-17) GOES-17 Lat,Lon METOP-C Lat,Lon Distance(km) Time Diff (sec)
1 11/16/2024 04:19:19 -0.01,-104.66 0.49,-102.44 252.52 80
2 11/17/2024 16:38:13 0.00,-104.71 0.51,-107.01 262.02 80
3 11/18/2024 16:20:14 -0.00,-104.71 -0.60,-102.02 306.38 80
4 11/20/2024 04:39:15 0.01,-104.65 -0.44,-106.62 224.81 80
5 11/21/2024 04:15:57 0.01,-104.64 0.68,-101.63 343.51 80
6 11/22/2024 16:34:50 -0.01,-104.70 0.30,-106.20 170.67 80
7 11/23/2024 16:16:51 -0.01,-104.70 -0.77,-101.20 398.48 80
8 11/25/2024 04:35:52 0.01,-104.65 -0.25,-105.80 131.16 80
9 11/26/2024 04:12:34 0.01,-104.65 0.89,-100.81 437.69 80
10 11/27/2024 16:31:26 -0.01,-104.70 0.14,-105.37 76.48 80
11 11/28/2024 16:13:27 -0.01,-104.70 -1.00,-100.38 492.84 80
